Time,TemperatureF,DewpointF,PressureIn,WindDirection,WindDirectionDegrees,WindSpeedMPH,WindSpeedGustMPH,Humidity,HourlyPrecipIn,Conditions,Clouds,dailyrainin,SolarRadiationWatts/m^2,SoftwareType,DateUTC
2013-03-10 00:01:00,56.0,50.0,-100.00,ENE,71,4.0,-999.0,79,0.00,,,-99.99,0.000000,,2013-03-10 05:01:00,
2013-03-10 00:11:00,56.0,50.0,-100.00,ENE,72,4.0,-999.0,80,0.00,,,-99.99,0.000000,,2013-03-10 05:11:00,
2013-03-10 00:22:00,56.0,50.0,-100.00,ENE,72,4.0,-999.0,80,0.00,,,-99.99,0.000000,,2013-03-10 05:22:00,
2013-03-10 00:31:00,56.0,51.0,-100.00,East,82,4.0,-999.0,81,0.00,,,-99.99,0.000000,,2013-03-10 05:31:00,
2013-03-10 00:42:00,56.0,51.0,-100.00,East,81,4.0,-999.0,82,0.00,,,-99.99,0.000000,,2013-03-10 05:42:00,
2013-03-10 00:52:00,56.0,51.0,-100.00,East,81,4.0,-999.0,82,0.00,,,-99.99,0.000000,,2013-03-10 05:52:00,
2013-03-10 01:01:00,56.0,51.0,-100.00,ENE,73,3.0,-999.0,83,0.00,,,-99.99,0.000000,,2013-03-10 06:01:00,
2013-03-10 01:11:00,55.0,51.0,-100.00,ENE,64,3.0,-999.0,84,0.00,,,-99.99,0.000000,,2013-03-10 06:11:00,
2013-03-10 01:22:00,55.0,51.0,-100.00,ENE,64,3.0,-999.0,84,0.00,,,-99.99,0.000000,,2013-03-10 06:22:00,
2013-03-10 01:32:00,55.0,51.0,-100.00,ENE,68,3.0,-999.0,86,0.00,,,-99.99,0.000000,,2013-03-10 06:32:00,
2013-03-10 01:42:00,55.0,51.0,-100.00,ENE,69,3.0,-999.0,87,0.00,,,-99.99,0.000000,,2013-03-10 06:42:00,
2013-03-10 01:52:00,55.0,51.0,-100.00,ENE,69,3.0,-999.0,87,0.00,,,-99.99,0.000000,,2013-03-10 06:52:00,
2013-03-10 03:02:00,55.0,51.0,-100.00,ENE,64,2.0,-999.0,88,0.00,,,-99.99,0.000000,,2013-03-10 07:02:00,
2013-03-10 03:11:00,54.0,51.0,-100.00,NE,53,2.0,-999.0,89,0.00,,,-99.99,0.000000,,2013-03-10 07:11:00,
2013-03-10 03:21:00,54.0,51.0,-100.00,NE,53,2.0,-999.0,89,0.00,,,-99.99,0.000000,,2013-03-10 07:21:00,
2013-03-10 03:32:00,54.0,51.0,-100.00,NE,54,4.0,-999.0,90,0.00,,,-99.99,0.000000,,2013-03-10 07:32:00,
2013-03-10 03:42:00,54.0,52.0,-100.00,ENE,57,4.0,-999.0,90,0.00,,,-99.99,0.000000,,2013-03-10 07:42:00,
2013-03-10 03:52:00,54.0,52.0,-100.00,ENE,57,4.0,-999.0,90,0.00,,,-99.99,0.000000,,2013-03-10 07:52:00,
2013-03-10 04:01:00,54.0,52.0,-100.00,ENE,65,4.0,-999.0,91,0.00,,,-99.99,0.000000,,2013-03-10 08:01:00,
2013-03-10 04:11:00,54.0,52.0,-100.00,ENE,64,4.0,-999.0,91,0.00,,,-99.99,0.000000,,2013-03-10 08:11:00,
2013-03-10 04:21:00,54.0,52.0,-100.00,ENE,64,4.0,-999.0,91,0.00,,,-99.99,0.000000,,2013-03-10 08:21:00,
2013-03-10 04:31:00,55.0,52.0,-100.00,ENE,70,3.0,-999.0,91,0.00,,,-99.99,0.000000,,2013-03-10 08:31:00,
2013-03-10 04:42:00,55.0,52.0,-100.00,ESE,102,2.0,-999.0,91,0.00,,,-99.99,0.000000,,2013-03-10 08:42:00,
2013-03-10 04:52:00,55.0,52.0,-100.00,ESE,102,2.0,-999.0,91,0.00,,,-99.99,0.000000,,2013-03-10 08:52:00,
2013-03-10 05:01:00,54.0,52.0,-100.00,ENE,68,2.0,-999.0,91,0.00,,,-99.99,0.000000,,2013-03-10 09:01:00,
2013-03-10 05:11:00,53.0,51.0,-100.00,NE,48,2.0,-999.0,92,0.00,,,-99.99,0.000000,,2013-03-10 09:11:00,
2013-03-10 05:21:00,53.0,51.0,-100.00,NE,48,2.0,-999.0,92,0.00,,,-99.99,0.000000,,2013-03-10 09:21:00,
2013-03-10 05:31:00,53.0,51.0,-100.00,ENE,78,3.0,-999.0,93,0.00,,,-99.99,0.000000,,2013-03-10 09:31:00,
2013-03-10 05:41:00,54.0,52.0,-100.00,East,91,3.0,-999.0,93,0.00,,,-99.99,0.000000,,2013-03-10 09:41:00,
2013-03-10 05:52:00,54.0,52.0,-100.00,East,91,3.0,-999.0,93,0.00,,,-99.99,0.000000,,2013-03-10 09:52:00,
2013-03-10 06:01:00,53.0,52.0,-100.00,ENE,65,3.0,-999.0,93,0.00,,,-99.99,0.000000,,2013-03-10 10:01:00,
2013-03-10 06:11:00,53.0,51.0,-100.00,East,82,3.0,-999.0,93,0.00,,,-99.99,0.000000,,2013-03-10 10:11:00,
2013-03-10 06:21:00,53.0,51.0,-100.00,East,82,3.0,-999.0,93,0.00,,,-99.99,0.000000,,2013-03-10 10:21:00,
2013-03-10 06:32:00,53.0,51.0,-100.00,ENE,76,3.0,-999.0,94,0.00,,,-99.99,0.000000,,2013-03-10 10:32:00,
2013-03-10 06:42:00,53.0,51.0,-100.00,ENE,68,3.0,-999.0,94,0.00,,,-99.99,0.000000,,2013-03-10 10:42:00,
2013-03-10 06:52:00,53.0,51.0,-100.00,ENE,68,3.0,-999.0,94,0.00,,,-99.99,0.000000,,2013-03-10 10:52:00,
2013-03-10 07:01:00,53.0,52.0,-100.00,ENE,65,3.0,-999.0,94,0.00,,,-99.99,0.000000,,2013-03-10 11:01:00,
2013-03-10 07:12:00,54.0,52.0,-100.00,ENE,74,2.0,-999.0,94,0.00,,,-99.99,0.000000,,2013-03-10 11:12:00,
2013-03-10 07:21:00,54.0,52.0,-100.00,ENE,74,2.0,-999.0,94,0.00,,,-99.99,0.000000,,2013-03-10 11:21:00,
2013-03-10 07:32:00,54.0,52.0,-100.00,ENE,73,2.0,-999.0,94,0.00,,,-99.99,0.000000,,2013-03-10 11:32:00,
2013-03-10 07:42:00,54.0,52.0,-100.00,NE,51,2.0,-999.0,94,0.00,,,-99.99,0.100000,,2013-03-10 11:42:00,
2013-03-10 07:52:00,54.0,52.0,-100.00,NE,51,2.0,-999.0,94,0.00,,,-99.99,0.100000,,2013-03-10 11:52:00,
2013-03-10 08:01:00,54.0,52.0,-100.00,ENE,60,3.0,-999.0,94,0.00,,,-99.99,2.600000,,2013-03-10 12:01:00,
2013-03-10 08:11:00,54.0,53.0,-100.00,ENE,66,3.0,-999.0,94,0.00,,,-99.99,12.600000,,2013-03-10 12:11:00,
2013-03-10 08:21:00,54.0,53.0,-100.00,ENE,66,3.0,-999.0,94,0.00,,,-99.99,12.600000,,2013-03-10 12:21:00,
2013-03-10 08:31:00,55.0,53.0,-100.00,ENE,69,3.0,-999.0,93,0.00,,,-99.99,31.100000,,2013-03-10 12:31:00,
2013-03-10 08:42:00,55.0,53.0,-100.00,ENE,69,3.0,-999.0,93,0.00,,,-99.99,31.100000,,2013-03-10 12:42:00,
2013-03-10 08:52:00,56.0,54.0,-100.00,ENE,67,4.0,-999.0,93,0.00,,,-99.99,57.299999,,2013-03-10 12:52:00,
2013-03-10 09:01:00,57.0,54.0,-100.00,ENE,63,4.0,-999.0,91,0.00,,,-99.99,91.500000,,2013-03-10 13:01:00,
2013-03-10 09:11:00,58.0,55.0,-100.00,ENE,66,4.0,-999.0,87,0.00,,,-99.99,118.599998,,2013-03-10 13:11:00,
2013-03-10 09:21:00,58.0,55.0,-100.00,ENE,66,4.0,-999.0,87,0.00,,,-99.99,118.599998,,2013-03-10 13:21:00,
2013-03-10 09:32:00,59.0,55.0,-100.00,ENE,70,3.0,-999.0,84,0.00,,,-99.99,164.100006,,2013-03-10 13:32:00,
2013-03-10 09:41:00,62.0,55.0,-100.00,ENE,70,5.0,-999.0,78,0.00,,,-99.99,333.899994,,2013-03-10 13:41:00,
2013-03-10 09:52:00,62.0,55.0,-100.00,ENE,70,5.0,-999.0,78,0.00,,,-99.99,333.899994,,2013-03-10 13:52:00,
2013-03-10 10:01:00,64.0,55.0,-100.00,ENE,71,6.0,-999.0,72,0.00,,,-99.99,387.100006,,2013-03-10 14:01:00,
2013-03-10 10:11:00,67.0,55.0,-100.00,ENE,71,7.0,-999.0,66,0.00,,,-99.99,476.899994,,2013-03-10 14:11:00,
2013-03-10 10:21:00,67.0,55.0,-100.00,ENE,71,7.0,-999.0,66,0.00,,,-99.99,476.899994,,2013-03-10 14:21:00,
2013-03-10 10:32:00,69.0,55.0,-100.00,East,86,7.0,-999.0,61,0.00,,,-99.99,459.000000,,2013-03-10 14:32:00,
2013-03-10 10:42:00,70.0,54.0,-100.00,East,100,6.0,-999.0,57,0.00,,,-99.99,521.599976,,2013-03-10 14:42:00,
2013-03-10 10:52:00,70.0,54.0,-100.00,East,100,6.0,-999.0,57,0.00,,,-99.99,521.599976,,2013-03-10 14:52:00,
2013-03-10 11:01:00,71.0,54.0,-100.00,ESE,102,7.0,-999.0,55,0.00,,,-99.99,573.000000,,2013-03-10 15:01:00,
2013-03-10 11:11:00,72.0,53.0,-100.00,ESE,120,6.0,-999.0,52,0.00,,,-99.99,563.900024,,2013-03-10 15:11:00,
2013-03-10 11:21:00,72.0,53.0,-100.00,ESE,120,6.0,-999.0,52,0.00,,,-99.99,563.900024,,2013-03-10 15:21:00,
2013-03-10 11:32:00,72.0,54.0,-100.00,East,100,7.0,-999.0,51,0.00,,,-99.99,654.400024,,2013-03-10 15:32:00,
2013-03-10 11:42:00,73.0,53.0,-100.00,ESE,112,8.0,-999.0,49,0.00,,,-99.99,704.000000,,2013-03-10 15:42:00,
2013-03-10 11:52:00,73.0,53.0,-100.00,ESE,112,8.0,-999.0,49,0.00,,,-99.99,704.000000,,2013-03-10 15:52:00,
2013-03-10 12:01:00,74.0,53.0,-100.00,ESE,115,8.0,-999.0,48,0.00,,,-99.99,709.000000,,2013-03-10 16:01:00,
2013-03-10 12:12:00,74.0,53.0,-100.00,ESE,117,8.0,-999.0,47,0.00,,,-99.99,745.000000,,2013-03-10 16:12:00,
2013-03-10 12:21:00,74.0,53.0,-100.00,ESE,117,8.0,-999.0,47,0.00,,,-99.99,745.000000,,2013-03-10 16:21:00,
2013-03-10 12:32:00,74.0,53.0,-100.00,ESE,122,9.0,-999.0,47,0.00,,,-99.99,789.000000,,2013-03-10 16:32:00,
2013-03-10 12:41:00,75.0,53.0,-100.00,SE,127,9.0,-999.0,46,0.00,,,-99.99,850.000000,,2013-03-10 16:41:00,
2013-03-10 12:52:00,75.0,53.0,-100.00,SE,127,9.0,-999.0,46,0.00,,,-99.99,850.000000,,2013-03-10 16:52:00,
2013-03-10 13:01:00,76.0,53.0,-100.00,SE,125,10.0,-999.0,45,0.00,,,-99.99,924.000000,,2013-03-10 17:01:00,
2013-03-10 13:11:00,75.0,53.0,-100.00,ESE,119,8.0,-999.0,46,0.00,,,-99.99,641.599976,,2013-03-10 17:11:00,
2013-03-10 13:21:00,75.0,53.0,-100.00,ESE,119,8.0,-999.0,46,0.00,,,-99.99,641.599976,,2013-03-10 17:21:00,
2013-03-10 13:31:00,76.0,53.0,-100.00,SE,130,8.0,-999.0,45,0.00,,,-99.99,801.000000,,2013-03-10 17:31:00,
2013-03-10 13:41:00,77.0,53.0,-100.00,SE,136,8.0,-999.0,43,0.00,,,-99.99,831.000000,,2013-03-10 17:41:00,
2013-03-10 13:51:00,77.0,53.0,-100.00,SE,136,8.0,-999.0,43,0.00,,,-99.99,831.000000,,2013-03-10 17:51:00,
2013-03-10 14:01:00,76.0,53.0,-100.00,ESE,121,8.0,-999.0,45,0.00,,,-99.99,662.000000,,2013-03-10 18:01:00,
2013-03-10 14:11:00,75.0,53.0,-100.00,ESE,108,7.0,-999.0,46,0.00,,,-99.99,439.399994,,2013-03-10 18:11:00,
2013-03-10 14:22:00,75.0,53.0,-100.00,ESE,108,7.0,-999.0,46,0.00,,,-99.99,439.399994,,2013-03-10 18:22:00,
2013-03-10 14:32:00,76.0,53.0,-100.00,SE,127,6.0,-999.0,44,0.00,,,-99.99,479.000000,,2013-03-10 18:32:00,
2013-03-10 14:42:00,76.0,52.0,-100.00,ESE,114,6.0,-999.0,43,0.00,,,-99.99,520.599976,,2013-03-10 18:42:00,
2013-03-10 14:52:00,76.0,52.0,-100.00,ESE,114,6.0,-999.0,43,0.00,,,-99.99,520.599976,,2013-03-10 18:52:00,
2013-03-10 15:01:00,77.0,52.0,-100.00,ESE,122,6.0,-999.0,41,0.00,,,-99.99,744.000000,,2013-03-10 19:01:00,
2013-03-10 15:11:00,78.0,52.0,-100.00,SE,139,6.0,-999.0,41,0.00,,,-99.99,599.799988,,2013-03-10 19:11:00,
2013-03-10 15:21:00,78.0,52.0,-100.00,SE,139,6.0,-999.0,41,0.00,,,-99.99,599.799988,,2013-03-10 19:21:00,
2013-03-10 15:32:00,79.0,53.0,-100.00,SE,127,7.0,-999.0,40,0.00,,,-99.99,777.000000,,2013-03-10 19:32:00,
2013-03-10 15:42:00,79.0,53.0,-100.00,ESE,123,6.0,-999.0,41,0.00,,,-99.99,784.000000,,2013-03-10 19:42:00,
2013-03-10 15:53:00,79.0,53.0,-100.00,ESE,123,6.0,-999.0,41,0.00,,,-99.99,784.000000,,2013-03-10 19:53:00,
2013-03-10 16:02:00,77.0,53.0,-100.00,ESE,111,7.0,-999.0,43,0.00,,,-99.99,440.899994,,2013-03-10 20:02:00,
2013-03-10 16:12:00,78.0,53.0,-100.00,ESE,114,6.0,-999.0,42,0.00,,,-99.99,614.200012,,2013-03-10 20:12:00,
2013-03-10 16:22:00,78.0,53.0,-100.00,ESE,114,6.0,-999.0,42,0.00,,,-99.99,614.200012,,2013-03-10 20:22:00,
2013-03-10 16:32:00,78.0,53.0,-100.00,SE,124,8.0,-999.0,42,0.00,,,-99.99,608.900024,,2013-03-10 20:32:00,
2013-03-10 16:43:00,78.0,52.0,-100.00,SE,134,7.0,-999.0,40,0.00,,,-99.99,667.099976,,2013-03-10 20:43:00,
2013-03-10 16:53:00,78.0,52.0,-100.00,SE,134,7.0,-999.0,40,0.00,,,-99.99,667.099976,,2013-03-10 20:53:00,
2013-03-10 17:02:00,79.0,53.0,-100.00,ESE,115,7.0,-999.0,40,0.00,,,-99.99,635.000000,,2013-03-10 21:02:00,
2013-03-10 17:12:00,77.0,52.0,-100.00,ESE,108,6.0,-999.0,41,0.00,,,-99.99,404.299988,,2013-03-10 21:12:00,
2013-03-10 17:23:00,77.0,52.0,-100.00,ESE,108,6.0,-999.0,41,0.00,,,-99.99,404.299988,,2013-03-10 21:23:00,
2013-03-10 17:32:00,78.0,52.0,-100.00,ESE,110,6.0,-999.0,41,0.00,,,-99.99,493.000000,,2013-03-10 21:32:00,
2013-03-10 17:42:00,77.0,52.0,-100.00,ESE,106,6.0,-999.0,40,0.00,,,-99.99,381.700012,,2013-03-10 21:42:00,
2013-03-10 17:53:00,77.0,52.0,-100.00,ESE,106,6.0,-999.0,40,0.00,,,-99.99,381.700012,,2013-03-10 21:53:00,
2013-03-10 18:02:00,77.0,52.0,-100.00,ESE,105,7.0,-999.0,41,0.00,,,-99.99,359.600006,,2013-03-10 22:02:00,
2013-03-10 18:12:00,77.0,52.0,-100.00,ESE,105,6.0,-999.0,41,0.00,,,-99.99,310.899994,,2013-03-10 22:12:00,
2013-03-10 18:22:00,77.0,52.0,-100.00,ESE,105,6.0,-999.0,41,0.00,,,-99.99,310.899994,,2013-03-10 22:22:00,
2013-03-10 18:32:00,76.0,53.0,-100.00,ESE,113,7.0,-999.0,43,0.00,,,-99.99,245.399994,,2013-03-10 22:32:00,
2013-03-10 18:43:00,75.0,53.0,-100.00,ESE,114,6.0,-999.0,45,0.00,,,-99.99,199.600006,,2013-03-10 22:43:00,
2013-03-10 18:53:00,75.0,53.0,-100.00,ESE,114,6.0,-999.0,45,0.00,,,-99.99,199.600006,,2013-03-10 22:53:00,
2013-03-10 19:03:00,74.0,53.0,-100.00,ESE,114,7.0,-999.0,48,0.00,,,-99.99,146.300003,,2013-03-10 23:03:00,
2013-03-10 19:12:00,73.0,55.0,-100.00,ESE,112,7.0,-999.0,53,0.00,,,-99.99,89.199997,,2013-03-10 23:12:00,
2013-03-10 19:23:00,73.0,55.0,-100.00,ESE,112,7.0,-999.0,53,0.00,,,-99.99,89.199997,,2013-03-10 23:23:00,
2013-03-10 19:33:00,72.0,55.0,-100.00,ESE,111,6.0,-999.0,54,0.00,,,-99.99,34.200001,,2013-03-10 23:33:00,
2013-03-10 19:42:00,70.0,54.0,-100.00,ESE,111,5.0,-999.0,56,0.00,,,-99.99,11.600000,,2013-03-10 23:42:00,
2013-03-10 19:52:00,70.0,54.0,-100.00,ESE,111,5.0,-999.0,56,0.00,,,-99.99,11.600000,,2013-03-10 23:52:00,
2013-03-10 20:02:00,70.0,55.0,-100.00,ESE,110,6.0,-999.0,58,0.00,,,-99.99,2.300000,,2013-03-11 00:02:00,
2013-03-10 20:13:00,69.0,54.0,-100.00,East,95,6.0,-999.0,59,0.00,,,-99.99,0.100000,,2013-03-11 00:13:00,
2013-03-10 20:23:00,69.0,54.0,-100.00,East,95,6.0,-999.0,59,0.00,,,-99.99,0.100000,,2013-03-11 00:23:00,
2013-03-10 20:33:00,68.0,54.0,-100.00,East,100,5.0,-999.0,60,0.00,,,-99.99,0.000000,,2013-03-11 00:33:00,
2013-03-10 20:43:00,68.0,54.0,-100.00,East,99,5.0,-999.0,61,0.00,,,-99.99,0.000000,,2013-03-11 00:43:00,
2013-03-10 20:53:00,68.0,54.0,-100.00,East,99,5.0,-999.0,61,0.00,,,-99.99,0.000000,,2013-03-11 00:53:00,
2013-03-10 21:03:00,67.0,54.0,-100.00,East,93,5.0,-999.0,62,0.00,,,-99.99,0.000000,,2013-03-11 01:03:00,
2013-03-10 21:13:00,66.0,54.0,-100.00,East,92,5.0,-999.0,64,0.00,,,-99.99,0.000000,,2013-03-11 01:13:00,
2013-03-10 21:23:00,66.0,54.0,-100.00,East,92,5.0,-999.0,64,0.00,,,-99.99,0.000000,,2013-03-11 01:23:00,
2013-03-10 21:32:00,66.0,54.0,-100.00,East,93,6.0,-999.0,65,0.00,,,-99.99,0.000000,,2013-03-11 01:32:00,
2013-03-10 21:42:00,65.0,54.0,-100.00,East,99,4.0,-999.0,67,0.00,,,-99.99,0.000000,,2013-03-11 01:42:00,
2013-03-10 21:53:00,65.0,54.0,-100.00,East,99,4.0,-999.0,67,0.00,,,-99.99,0.000000,,2013-03-11 01:53:00,
2013-03-10 22:02:00,65.0,55.0,-100.00,ESE,102,4.0,-999.0,70,0.00,,,-99.99,0.000000,,2013-03-11 02:02:00,
2013-03-10 22:12:00,64.0,55.0,-100.00,ESE,102,4.0,-999.0,71,0.00,,,-99.99,0.000000,,2013-03-11 02:12:00,
2013-03-10 22:23:00,64.0,55.0,-100.00,ESE,102,4.0,-999.0,71,0.00,,,-99.99,0.000000,,2013-03-11 02:23:00,
2013-03-10 22:32:00,64.0,55.0,-100.00,East,101,5.0,-999.0,71,0.00,,,-99.99,0.000000,,2013-03-11 02:32:00,
2013-03-10 22:42:00,64.0,55.0,-100.00,East,100,4.0,-999.0,72,0.00,,,-99.99,0.000000,,2013-03-11 02:42:00,
2013-03-10 22:53:00,64.0,55.0,-100.00,East,100,4.0,-999.0,72,0.00,,,-99.99,0.000000,,2013-03-11 02:53:00,
2013-03-10 23:02:00,63.0,55.0,-100.00,East,97,4.0,-999.0,73,0.00,,,-99.99,0.000000,,2013-03-11 03:02:00,
2013-03-10 23:12:00,63.0,55.0,-100.00,ESE,104,4.0,-999.0,74,0.00,,,-99.99,0.000000,,2013-03-11 03:12:00,
2013-03-10 23:22:00,63.0,55.0,-100.00,ESE,104,4.0,-999.0,74,0.00,,,-99.99,0.000000,,2013-03-11 03:22:00,
2013-03-10 23:32:00,63.0,55.0,-100.00,ESE,109,3.0,-999.0,75,0.00,,,-99.99,0.000000,,2013-03-11 03:32:00,
2013-03-10 23:42:00,62.0,55.0,-100.00,ESE,109,4.0,-999.0,77,0.00,,,-99.99,0.000000,,2013-03-11 03:42:00,
2013-03-10 23:53:00,62.0,55.0,-100.00,ESE,109,4.0,-999.0,77,0.00,,,-99.99,0.000000,,2013-03-11 03:53:00,